SCP
0 0 0 0 0 0 0 0 0 0 0 0 0 0 0 0 0 0 0 0 0 0 0 0 0 0 0 0 0 0 0 0 0 0 0 0 0 0 0 0 0 0 0 0 0 0 0 0 0 0 0 0 0 0
0 0 0 0 0 0 0 0 0 0 0 0 0 0 0 0 0 0 0 0 0 0 0 0 0 0 0 0 0 0 0 0 0 0 0 0 0 0 0 0 0 0 0 0 0 0 0 0 0 0 0 0 0 0
0 0 0 0 0 0 0 0 0 0 0 0 0 0 0 0 0 0 0 0 0 0 0 0 0 0 0 0 0 0 0 0 0 0 0 0 0 0 0 0 0 0 0 0 0 0 0 0 0 0 0 0 0 0
0 0 0 0 0 0 0 0 0 0 0 0 0 0 0 0 0 0 0 0 0 0 0 0 0 0 0 0 0 0 0 0 0 0 0 0 0 0 0 0 0 0 0 0 -0 0 0 0 -0 -0 -0 0 0 0
0 0 0 0 0 0 0 0 0 0 0 0 0 0 0 0 0 0 0 0 0 0 0 0 0 0 0 0 0 0 0 0 0 0 0 0 0 0 0 0 0 0 0 0 -0 0 0 -0 -0 -0 0 0 0 -0
0 0 0 0 0 0 0 0 0 0 0 0 0 0 0 0 0 0 0 0 0 0 0 0 0 0 0 0 0 0 0 0 0 0 0 0 0 0 0 0 0 0 0 0 -0 0 -0 -0 -0 0 0 0 0 -0
0 0 0 0 0 0 0 0 0 0 0 0 0 0 0 0 0 0 0 0 0 0 0 0 0 0 0 0 0 0 0 0 0 0 0 0 0 0 0 -0 -0 -0 -0 -0 -0 0 0 -0 0 0 -0 0 -0 -0
0 0 0 0 0 0 0 0 0 0 0 0 0 0 0 0 0 0 0 0 0 0 0 0 0 0 0 0 0 0 0 0 0 0 0 0 0 0 -0 0 0 -0 0 0 -0 -0 -0 0 0 -0 -0 -0 -0 -0
0 0 0 0 0 0 0 0 0 0 0 0 0 0 0 0 0 0 0 0 0 0 0 0 0 0 0 0 0 0 0 0 0 0 0 0 -0 -0 0 0 0 0 0 0 -0 -0 -0 -0 -0 -0 -0 -0 0 0
0 0 0 0 0 0 0 0 0 0 0 0 0 0 0 0 0 0 0 0 0 0 0 0 0 0 0 0 0 0 0 0 -0 0 0 -0 -0 -0 -0 0 0 0 0 -0 -0 0 -0 0 -0 -0 -0 -0 0 0
0 0 0 0 0 0 0 0 0 0 0 0 0 0 0 0 0 0 0 0 0 0 0 0 0 0 0 0 0 0 0 -0 -0 -0 0 0 0 0 0 0 0 0 -0 -0 -0 -0 -0 -0 -0 -0 -0 0 0 0
0 0 0 0 0 0 0 0 0 0 0 0 0 0 0 0 0 0 0 0 0 0 0 0 0 0 -0 -0 0 0 0 -0 -0 0 0 0 0 0 0 0 0 -0 -0 -0 -0 -0 -0 -0 -0 -0 -0 -0 0 0
0 0 0 0 0 0 0 0 0 0 0 0 0 0 0 0 0 0 0 0 0 0 0 0 -0 0 0 0 0 -0 -0 -0 -0 -0 -0 0 0 0 0 0 -0 -0 -0 -0 -0 -0 -0 -0 0 0 -0 -0 0 0
0 0 0 0 0 0 0 0 0 0 0 0 0 0 0 0 0 0 0 0 0 0 0 0 0 0 -0 -0 -0 -0 -0 0 0 0 -0 -0 0 0 0 0 -0 -0 -0 -0 0 0 0 0 0 0 -0 -0 -0 -0
0 0 0 0 0 0 -0 0 0 0 0 0 0 0 0 0 0 0 0 0 0 0 0 0 0 0 -0 -0 -0 -0 -0 0 -0 -0 -0 0 0 0 0 -0 -0 0 0 0 0 0 0 0 0 0 0 0 -0 -0
0 0 -0 0 0 -0 -0 0 0 0 0 0 0 0 0 0 0 -0 -0 -0 0 -0 0 0 0 -0 -0 -0 -0 -0 -0 0 -0 -0 0 0 0 0 0 -0 -0 -0 0 0 0 0 0 0 0 0 0 0 0 0
-0 0 0 0 0 0 0 0 0 0 0 0 0 0 0 0 -0 -0 -0 -0 0 -0 -0 0 0 0 0 -0 -0 -0 0 -0 -0 -0 -0 0 0 0 0 0 0 0 -0 0 0 0 0 0 0 0 0 -0 0 -0
0 0 0 0 0 0 0 0 0 0 0 -0 0 -0 0 0 -0 0 0 0 0 0 0 0 0 0 0 -0 -0 0 -0 -0 0 -0 -0 -0 0 0 0 0 0 0 -0 -0 -0 -0 0 0 0 0 -0 -0 -0 0
0 0 0 -0 0 0 0 0 0 0 -0 0 -0 0 0 0 -0 -0 -0 0 0 0 0 0 0 0 0 -0 -0 -0 -0 0 0 -0 -0 -0 0 0 0 0 0 -0 0 -0 -0 -0 -0 -0 -0 0 0 0 0 -0
0 0 -0 -0 0 0 0 0 0 0 -0 -0 0 0 0 0 -0 -0 -0 0 0 0 0 0 0 0 -0 0 -0 -0 -0 0 -0 -0 -0 0 0 0 0 0 0 0 -0 -0 -0 0 0 -0 -0 -0 -0 -0 -0 -0
0 0 -0 0 0 0 0 0 0 0 0 -0 -0 -0 0 -0 -0 -0 0 0 0 0 0 0 0 0 0 0 0 0 0 0 0 0 0 0 0 0 0 0 0 -0 -0 -0 -0 -0 0 -0 -0 -0 -0 -0 -0 -0
0 0 0 0 0 0 0 0 0 -0 -0 -0 -0 -0 -0 -0 0 0 0 0 0 0 0 0 -0 0 0 0 0 0 0 0 0 0 0 -0 0 0 0 0 0 -0 -0 -0 -0 -0 -0 -0 0 0 0 -0 -0 -0
0 0 0 0 0 -0 -0 0 -0 -0 -0 -0 -0 -0 -0 -0 -0 0 0 0 0 -0 -0 0 0 0 0 0 0 0 0 0 0 0 0 0 0 0 0 0 0 -0 -0 -0 -0 -0 -0 -0 -0 -0 0 0 0 -0
0 0 0 0 0 -0 -0 -0 -0 -0 -0 -0 -0 -0 -0 0 0 0 0 0 0 0 0 0 0 0 0 0 0 0 0 0 -0 0 0 -0 0 0 0 0 0 0 -0 -0 -0 -0 -0 -0 -0 -0 -0 -0 0 0
0 0 0 -0 -0 -0 -0 -0 -0 -0 0 0 0 0 0 0 0 0 0 0 0 0 0 0 0 0 0 0 0 0 0 0 -0 -0 -0 0 0 0 0 0 0 0 -0 -0 -0 -0 -0 -0 -0 -0 -0 -0 -0 -0
0 0 -0 -0 0 0 -0 -0 -0 0 0 0 0 0 0 0 0 0 0 0 0 0 0 -0 0 0 0 0 0 0 -0 0 0 0 0 0 0 0 0 0 0 0 0 0 0 0 0 -0 -0 -0 -0 -0 -0 -0
0 -0 0 0 0 -0 0 0 0 0 0 0 0 0 0 0 0 0 0 0 0 0 0 0 0 0 0 0 0 0 0 0 0 0 0 0 0 0 0 0 0 0 0 0 0 0 0 0 0 -0 -0 -0 -0 -0
0 -0 -0 0 0 0 0 0 0 -0 0 0 0 0 0 0 0 0 0 0 0 0 0 0 0 0 0 0 0 0 0 0 0 0 0 0 0 0 0 0 0 0 0 0 0 0 0 0 0 0 0 -0 -0 -0
0 0 0 0 0 0 0 0 0 0 0 0 0 0 0 0 0 0 0 0 0 0 0 0 0 0 0 0 0 0 0 0 0 0 0 0 0 0 0 0 0 0 0 0 0 0 0 0 0 0 0 0 0 -0
0 0 0 0 0 0 0 0 0 0 0 0 0 0 0 0 0 0 0 0 0 0 0 0 0 0 0 0 0 0 0 0 0 0 0 0 0 0 0 0 0 0 0 0 0 0 0 0 0 0 0 0 0 0
0 0 0 0 0 0 0 0 0 0 0 0 0 0 0 0 0 0 0 0 0 0 0 0 0 0 0 0 0 0 0 0 0 0 0 0 0 0 0 0 0 0 0 0 0 0 0 0 0 0 0 0 0 0
0 0 0 0 0 0 0 0 0 0 0 0 0 0 0 0 0 0 0 0 0 0 0 0 0 0 0 0 0 0 0 0 0 0 0 0 0 0 0 0 0 0 0 0 0 0 0 0 0 0 0 0 0 0
0 0 0 0 0 0 0 0 0 0 0 0 0 0 0 0 0 0 0 0 0 0 0 0 0 0 0 0 0 0 0 0 0 0 0 0 0 0 0 0 0 0 0 0 0 0 0 0 0 0 0 0 0 0
Wind_Speed_500mb
37 32 32 36 43 43 33 24 25 23 22 15 15 14 16 16 16 18 17 14 17 9 24 27 20 18 14 12 5 6 14 5 5 5 5 2 4 3 6 7 4 4 10 8 10 13 8 2 5 7 17 31 36 46
36 38 39 42 41 38 31 29 24 25 24 16 15 16 16 15 18 21 22 17 18 23 27 48 56 53 49 39 16 10 5 3 5 5 2 5 4 4 4 5 3 4 3 5 8 5 1 3 14 25 12 37 52 53
33 36 40 41 38 40 36 35 26 24 22 18 17 17 13 13 16 30 24 19 21 19 31 21 21 10 4 9 37 16 13 17 10 10 3 3 7 4 4 5 7 1 1 7 9 3 5 27 11 12 38 49 53 57
41 41 42 41 42 39 38 35 31 31 29 23 19 18 17 18 17 29 29 20 17 11 8 12 13 25 47 38 34 48 24 15 16 8 5 4 5 6 5 6 10 14 12 9 16 16 27 5 31 42 49 51 56 59
38 38 36 34 31 28 29 31 30 28 27 25 20 18 19 18 17 22 26 24 23 12 8 22 54 3 13 15 20 39 39 37 7 2 5 4 7 5 4 5 9 8 2 4 5 18 12 34 40 47 50 57 59 62
34 33 32 28 28 28 30 30 27 24 24 21 19 21 17 16 15 27 12 18 17 18 8 7 14 12 11 13 9 24 26 28 14 8 7 8 7 5 4 6 10 11 9 15 10 23 29 39 39 43 54 60 57 58
30 30 29 27 27 27 27 27 25 24 24 23 21 19 15 19 18 27 9 8 8 8 6 10 10 8 8 4 6 12 17 12 13 8 9 6 5 6 5 8 7 12 14 15 21 26 29 36 56 52 50 53 54 59
26 24 23 23 23 23 24 23 21 20 23 23 22 24 15 12 22 26 20 20 13 12 5 5 8 10 3 6 8 14 11 17 12 8 5 6 4 9 8 17 20 17 17 17 13 24 33 43 46 46 49 51 60 60
23 19 17 18 20 20 20 18 16 15 24 20 23 15 9 20 8 11 13 11 12 8 5 7 4 5 6 4 7 14 14 7 8 4 5 8 5 9 12 13 18 7 8 17 28 30 33 41 46 46 50 56 52 65
17 15 14 15 12 10 10 10 10 19 20 13 17 10 8 9 10 6 9 13 9 8 11 7 7 8 6 3 5 5 7 4 4 6 8 6 7 26 21 14 3 7 18 21 30 40 43 46 46 49 53 52 57 68
21 18 15 13 9 7 8 10 12 25 23 26 15 8 11 19 15 4 4 5 5 5 10 10 18 13 7 7 4 6 3 4 4 3 4 3 4 2 8 5 6 16 22 20 21 31 30 34 44 49 53 53 57 69
23 20 17 16 10 6 7 11 16 22 22 17 11 18 19 9 5 4 5 6 8 6 9 9 11 17 8 11 6 6 2 3 5 9 4 4 1 4 3 8 14 23 21 21 24 33 34 38 40 43 49 53 62 66
24 24 17 17 16 14 14 17 25 28 27 20 9 10 8 8 7 10 12 8 7 10 12 12 7 8 10 10 8 4 4 5 3 5 4 2 2 4 6 12 20 15 22 22 31 34 36 36 41 45 54 55 63 65
19 20 19 16 21 19 20 20 32 30 25 12 11 11 9 9 10 11 11 5 10 8 8 15 7 13 10 8 4 5 2 4 4 4 1 3 2 2 6 14 14 23 26 28 34 33 31 36 44 48 53 60 61 67
23 22 25 26 22 22 23 24 32 26 17 8 9 10 15 15 11 8 14 12 8 8 8 8 5 9 4 4 2 2 4 5 4 3 3 4 5 4 5 11 19 23 30 27 28 30 33 38 43 47 56 56 58 62
24 28 37 28 25 26 27 26 35 33 11 11 11 7 9 10 14 18 22 17 15 20 18 10 3 3 6 3 6 7 3 6 2 3 7 7 7 10 7 15 20 27 23 25 28 32 35 37 40 43 49 54 58 61
24 37 33 28 34 33 27 49 36 19 14 9 9 25 15 8 13 10 15 17 22 10 5 5 7 4 5 4 5 6 6 3 7 12 13 13 16 9 10 16 23 22 22 26 30 33 37 38 39 39 51 60 60 62
29 28 24 16 24 40 37 38 17 14 11 14 9 18 21 18 14 13 15 13 20 14 9 6 4 7 6 5 5 5 9 8 16 18 19 17 11 6 10 18 22 22 22 27 32 35 37 38 36 39 45 53 53 65
28 20 15 20 35 33 15 18 14 10 18 9 18 20 12 14 25 24 20 17 18 20 5 7 5 5 5 9 9 7 15 20 23 24 20 14 8 4 7 18 21 22 25 29 34 37 33 33 37 38 43 49 51 65
21 12 24 24 34 16 12 11 16 9 11 12 13 13 11 14 13 21 27 27 23 12 9 7 8 6 7 7 6 6 16 27 32 24 19 15 9 3 5 15 18 19 22 25 30 37 32 34 38 39 43 47 48 57
13 17 26 45 32 11 10 12 12 10 7 9 7 15 10 13 18 21 17 26 20 10 7 15 12 7 14 12 6 12 20 25 32 18 17 18 13 6 4 13 16 19 24 25 25 29 33 37 37 36 41 43 47 49
32 49 32 40 6 8 5 10 6 6 8 7 6 14 8 7 11 19 16 15 9 14 12 15 18 11 11 11 15 14 13 22 25 17 16 12 15 10 2 11 14 14 23 26 29 30 30 33 37 32 40 41 42 50
43 38 11 10 5 8 4 9 9 9 6 5 8 5 5 8 11 20 11 12 14 19 35 22 13 7 17 18 16 13 19 23 22 20 18 15 15 9 3 10 14 16 17 24 27 28 27 24 29 29 36 43 48 49
23 17 8 12 8 8 8 9 8 6 8 4 4 5 5 5 20 6 3 8 12 24 14 19 17 25 24 23 23 23 24 20 19 20 17 14 13 9 4 8 13 16 20 23 24 26 24 21 25 32 42 45 48 51
10 9 9 7 8 9 7 5 7 4 5 6 4 4 4 8 4 3 1 6 1 21 32 33 30 29 29 27 28 26 24 17 16 19 18 14 8 6 4 6 11 13 17 20 24 24 24 25 25 30 39 47 45 46
7 10 11 15 9 7 7 6 9 8 4 4 5 4 5 3 3 5 4 15 13 5 21 30 34 33 26 21 29 26 24 19 14 14 16 14 6 5 5 4 4 10 16 22 24 21 21 23 26 27 30 39 49 45
8 7 9 9 7 5 5 5 6 4 6 5 4 3 2 4 4 5 5 23 7 5 14 24 26 21 17 23 22 23 26 19 16 9 12 9 6 8 10 9 10 12 16 19 22 21 20 19 22 25 28 33 41 47
5 12 8 13 10 8 4 4 6 7 4 6 7 3 3 4 5 9 7 18 11 20 24 26 18 10 18 25 23 23 25 22 17 13 12 6 5 4 4 8 13 17 18 18 20 20 19 19 19 21 24 28 32 36
6 13 14 7 6 6 5 3 4 8 5 8 3 5 6 9 12 11 14 16 21 25 25 24 16 16 21 22 16 18 21 20 14 15 7 8 3 2 2 9 14 16 18 19 19 18 18 18 19 19 21 23 26 28
8 16 6 6 4 3 2 2 8 14 13 14 17 29 32 31 31 23 23 23 24 22 19 14 11 17 19 18 16 20 20 16 11 5 5 6 5 6 5 6 11 14 16 17 18 19 19 19 19 18 18 18 19 20
13 6 6 4 5 10 24 32 26 23 19 23 34 34 21 16 30 34 34 33 28 23 19 19 19 18 19 20 21 19 18 16 18 17 13 10 8 8 5 6 9 13 15 17 17 18 18 18 16 15 15 15 16 18
7 4 6 4 6 15 13 8 10 12 12 13 12 11 10 10 10 16 32 26 25 23 25 25 25 27 20 9 5 7 7 6 8 10 10 9 7 3 3 8 12 14 16 16 17 18 18 19 19 19 17 16 14 13
7 9 8 9 6 5 7 9 8 7 11 8 9 10 10 8 9 7 16 22 18 20 20 16 13 11 8 5 4 7 10 13 14 12 8 3 5 9 12 12 12 13 14 15 17 17 18 19 19 19 19 18 18 16
Wind_Direction_500mb
262 265 273 268 289 294 287 276 280 281 286 286 309 300 290 301 291 296 292 305 270 250 276 276 269 241 245 220 219 314 313 217 270 249 259 288 285 356 278 261 271 249 185 183 202 216 246 100 273 266 332 312 311 305
258 262 264 271 280 281 276 271 270 281 281 274 292 285 285 288 284 285 270 307 301 256 269 288 290 284 265 248 251 217 277 314 285 273 326 307 266 273 310 291 286 246 313 309 239 302 69 285 283 295 311 312 312 306
262 265 267 272 274 274 274 268 270 270 280 260 271 276 278 286 285 274 277 279 290 287 293 284 290 276 115 325 234 218 230 225 235 229 271 271 269 276 273 263 297 251 313 264 309 115 288 312 300 260 317 314 314 308
265 264 268 271 275 276 261 264 261 261 268 260 256 268 279 285 279 275 262 287 283 267 281 280 277 286 297 284 248 228 219 243 217 228 242 247 264 210 266 305 279 273 299 277 268 283 313 246 319 319 317 315 314 309
273 273 273 272 271 270 264 264 269 269 257 255 247 261 264 278 267 269 266 275 272 259 279 288 301 316 303 306 240 224 229 231 214 243 230 229 253 251 236 268 254 216 221 233 296 322 275 298 313 316 313 314 314 315
275 272 268 265 265 267 267 269 268 261 244 242 240 252 262 282 263 245 240 267 244 242 287 296 304 293 335 325 249 223 221 215 212 211 242 244 254 262 277 265 267 238 237 248 280 308 297 300 311 316 313 313 313 314
275 270 269 268 265 266 268 268 264 251 228 224 232 246 263 268 265 216 206 184 291 189 244 292 285 281 320 319 142 173 198 202 196 232 220 248 229 195 245 259 294 275 272 276 303 312 310 320 315 316 316 315 318 317
279 276 271 270 270 271 271 267 261 250 220 217 229 250 242 278 252 220 243 273 299 188 210 272 279 297 219 230 198 187 185 209 220 244 185 226 213 224 253 256 289 299 289 294 309 316 310 312 316 321 322 323 321 320
283 278 282 283 277 270 265 262 256 229 198 216 226 252 267 207 207 252 260 213 229 221 214 227 258 286 334 307 228 195 193 201 205 229 223 192 207 230 255 287 311 316 326 313 319 324 329 327 324 328 328 326 322 322
279 275 286 283 284 277 257 256 250 184 185 200 235 174 162 174 187 185 139 182 222 225 218 245 231 260 301 325 281 222 188 205 226 213 179 225 247 257 270 279 246 321 333 335 335 333 333 328 330 327 325 326 326 328
274 269 273 261 249 256 257 244 206 175 193 200 189 149 144 146 155 151 163 208 196 248 222 240 229 239 255 237 273 241 212 175 245 130 260 250 249 206 183 243 321 336 334 332 327 324 325 320 324 326 328 332 333 332
272 258 256 230 214 217 211 196 185 196 184 184 182 145 143 171 156 212 205 186 215 246 210 217 222 208 236 214 248 226 264 200 246 155 230 243 70 91 206 309 335 338 333 328 327 329 331 327 334 334 335 336 335 337
260 245 246 242 225 219 225 208 192 207 215 187 186 136 151 162 193 208 193 201 214 202 211 206 209 194 196 216 247 245 235 231 130 221 236 297 227 231 287 326 337 344 337 324 322 329 332 336 345 349 345 343 342 340
250 233 233 232 229 233 217 220 211 209 203 198 167 162 209 189 227 203 216 195 211 205 219 204 228 196 199 188 232 234 149 244 245 267 201 116 112 112 342 338 346 339 337 329 328 335 340 344 346 353 352 350 345 343
251 248 239 232 230 229 219 220 213 207 193 209 187 210 213 226 234 216 229 229 197 241 242 296 252 203 170 244 223 262 217 253 253 307 91 113 117 55 18 360 353 352 346 352 352 349 348 345 349 353 358 352 349 348
252 248 239 238 235 232 217 204 195 200 205 222 221 226 222 206 243 230 229 234 221 246 263 253 209 205 204 215 194 213 207 235 242 199 137 125 101 105 35 6 359 352 358 0 1 359 356 353 356 355 354 356 357 355
252 250 258 260 235 227 212 189 177 190 214 215 229 224 222 249 245 246 217 215 229 213 216 185 207 165 112 200 219 191 214 215 174 151 133 121 122 90 25 10 5 8 9 10 5 3 1 357 359 360 358 358 360 1
255 267 276 222 192 192 182 184 177 196 225 217 222 227 213 222 237 243 216 225 212 205 192 186 226 187 196 210 213 207 189 160 152 152 144 139 128 76 34 11 13 18 15 7 4 2 360 2 3 1 357 357 360 5
262 252 222 197 194 186 154 174 188 198 214 217 235 240 230 241 240 235 223 239 272 222 218 193 217 216 212 215 235 185 177 167 165 162 158 153 144 93 35 12 10 17 14 12 13 9 7 13 8 6 2 2 4 8
250 217 201 202 200 171 158 169 180 209 198 219 226 229 213 224 221 231 229 228 228 177 215 208 222 218 208 244 265 206 179 175 169 158 169 183 186 160 34 11 12 17 18 18 19 18 16 14 11 10 9 8 9 10
202 194 191 187 173 180 174 165 180 200 208 221 235 214 236 235 227 211 218 239 200 194 225 223 209 218 267 271 219 161 169 179 182 174 174 180 185 182 16 14 20 19 18 18 18 18 20 19 13 11 12 14 17 17
166 170 166 180 141 167 166 191 170 190 196 240 243 203 228 207 197 199 199 188 209 200 219 205 213 245 217 163 142 141 155 166 161 147 143 145 164 168 51 19 29 27 22 21 21 19 19 21 18 16 17 17 19 24
176 177 135 146 136 173 157 186 178 200 219 212 197 209 218 213 199 175 193 205 216 209 211 213 237 167 159 143 134 127 136 151 151 150 151 153 159 153 84 27 36 37 27 23 21 20 22 27 27 29 22 25 28 29
177 165 157 165 165 169 183 192 206 232 210 219 227 215 207 179 162 211 227 207 199 185 203 205 217 163 155 146 142 141 141 148 157 157 159 152 155 152 102 52 48 42 37 28 21 22 27 32 36 38 35 33 32 33
129 168 158 167 184 194 193 200 176 222 230 185 243 215 188 150 148 145 260 18 94 191 195 194 195 185 167 161 156 153 150 139 134 159 159 155 132 121 87 69 49 44 39 34 28 30 32 34 39 40 39 39 38 37
169 181 191 188 167 223 180 197 186 203 199 215 226 208 158 121 112 108 62 349 350 283 200 190 182 176 171 170 172 171 168 157 146 147 153 152 127 70 104 109 51 26 31 34 30 33 38 42 43 43 40 38 41 41
168 170 191 187 177 196 186 212 167 191 192 222 171 144 131 124 119 74 23 358 17 29 174 182 179 180 177 167 171 172 169 165 160 156 155 145 96 90 89 80 56 34 27 23 21 27 32 37 41 43 41 38 41 43
200 179 174 183 177 209 171 206 193 191 208 218 170 127 99 41 57 339 345 10 66 108 132 154 160 145 150 159 164 174 180 173 166 152 140 106 83 81 45 23 23 22 16 13 16 18 21 26 31 35 36 37 39 41
211 173 160 160 181 187 229 221 206 196 203 136 101 76 81 67 22 31 40 67 109 118 138 140 133 142 160 174 176 167 165 163 155 154 103 13 334 299 337 353 353 356 356 357 4 9 14 19 20 20 24 29 33 35
171 170 123 149 184 178 206 145 93 105 96 115 104 105 91 78 62 71 85 98 111 121 129 142 164 160 173 187 190 178 174 176 180 209 311 327 290 281 277 319 331 340 348 352 353 356 2 8 10 10 8 5 9 21
156 133 108 104 85 75 110 115 114 104 89 96 118 113 115 110 68 61 76 87 94 104 109 113 126 125 130 136 147 157 175 205 228 242 267 274 240 223 256 308 330 337 340 343 344 344 346 351 354 359 1 3 360 355
138 117 126 107 102 124 113 63 70 81 77 81 66 86 86 80 70 44 51 79 99 112 116 118 121 121 124 128 156 192 219 206 166 153 150 149 150 140 349 339 339 339 340 341 342 342 343 344 345 346 348 350 353 353
105 120 102 106 111 101 85 93 80 81 63 68 61 60 62 72 86 64 46 64 88 101 111 114 117 138 132 126 114 141 146 139 129 118 98 57 324 313 319 329 340 348 348 345 342 339 338 337 335 334 333 334 335 338
Wind_Speed_850mb
37 32 32 36 43 43 33 24 25 23 22 15 15 14 16 16 16 18 17 14 17 9 24 27 20 18 14 12 5 6 14 5 5 5 5 2 4 3 6 7 4 4 10 8 10 13 8 2 5 7 17 31 36 46
36 38 39 42 41 38 31 29 24 25 24 16 15 16 16 15 18 21 22 17 18 23 27 48 56 53 49 39 16 10 5 3 5 5 2 5 4 4 4 5 3 4 3 5 8 5 1 3 14 25 12 37 52 53
33 36 40 41 38 40 36 35 26 24 22 18 17 17 13 13 16 30 24 19 21 19 31 21 21 10 4 9 37 16 13 17 10 10 3 3 7 4 4 5 7 1 1 7 9 3 5 27 11 12 38 49 53 57
41 41 42 41 42 39 38 35 31 31 29 23 19 18 17 18 17 29 29 20 17 11 8 12 13 25 47 38 34 48 24 15 16 8 5 4 5 6 5 6 10 14 12 9 16 16 27 5 31 42 49 51 56 59
38 38 36 34 31 28 29 31 30 28 27 25 20 18 19 18 17 22 26 24 23 12 8 22 54 3 13 15 20 39 39 37 7 2 5 4 7 5 4 5 9 8 2 4 5 18 12 34 40 47 50 57 59 62
34 33 32 28 28 28 30 30 27 24 24 21 19 21 17 16 15 27 12 18 17 18 8 7 14 12 11 13 9 24 26 28 14 8 7 8 7 5 4 6 10 11 9 15 10 23 29 39 39 43 54 60 57 58
30 30 29 27 27 27 27 27 25 24 24 23 21 19 15 19 18 27 9 8 8 8 6 10 10 8 8 4 6 12 17 12 13 8 9 6 5 6 5 8 7 12 14 15 21 26 29 36 56 52 50 53 54 59
26 24 23 23 23 23 24 23 21 20 23 23 22 24 15 12 22 26 20 20 13 12 5 5 8 10 3 6 8 14 11 17 12 8 5 6 4 9 8 17 20 17 17 17 13 24 33 43 46 46 49 51 60 60
23 19 17 18 20 20 20 18 16 15 24 20 23 15 9 20 8 11 13 11 12 8 5 7 4 5 6 4 7 14 14 7 8 4 5 8 5 9 12 13 18 7 8 17 28 30 33 41 46 46 50 56 52 65
17 15 14 15 12 10 10 10 10 19 20 13 17 10 8 9 10 6 9 13 9 8 11 7 7 8 6 3 5 5 7 4 4 6 8 6 7 26 21 14 3 7 18 21 30 40 43 46 46 49 53 52 57 68
21 18 15 13 9 7 8 10 12 25 23 26 15 8 11 19 15 4 4 5 5 5 10 10 18 13 7 7 4 6 3 4 4 3 4 3 4 2 8 5 6 16 22 20 21 31 30 34 44 49 53 53 57 69
23 20 17 16 10 6 7 11 16 22 22 17 11 18 19 9 5 4 5 6 8 6 9 9 11 17 8 11 6 6 2 3 5 9 4 4 1 4 3 8 14 23 21 21 24 33 34 38 40 43 49 53 62 66
24 24 17 17 16 14 14 17 25 28 27 20 9 10 8 8 7 10 12 8 7 10 12 12 7 8 10 10 8 4 4 5 3 5 4 2 2 4 6 12 20 15 22 22 31 34 36 36 41 45 54 55 63 65
19 20 19 16 21 19 20 20 32 30 25 12 11 11 9 9 10 11 11 5 10 8 8 15 7 13 10 8 4 5 2 4 4 4 1 3 2 2 6 14 14 23 26 28 34 33 31 36 44 48 53 60 61 67
23 22 25 26 22 22 23 24 32 26 17 8 9 10 15 15 11 8 14 12 8 8 8 8 5 9 4 4 2 2 4 5 4 3 3 4 5 4 5 11 19 23 30 27 28 30 33 38 43 47 56 56 58 62
24 28 37 28 25 26 27 26 35 33 11 11 11 7 9 10 14 18 22 17 15 20 18 10 3 3 6 3 6 7 3 6 2 3 7 7 7 10 7 15 20 27 23 25 28 32 35 37 40 43 49 54 58 61
24 37 33 28 34 33 27 49 36 19 14 9 9 25 15 8 13 10 15 17 22 10 5 5 7 4 5 4 5 6 6 3 7 12 13 13 16 9 10 16 23 22 22 26 30 33 37 38 39 39 51 60 60 62
29 28 24 16 24 40 37 38 17 14 11 14 9 18 21 18 14 13 15 13 20 14 9 6 4 7 6 5 5 5 9 8 16 18 19 17 11 6 10 18 22 22 22 27 32 35 37 38 36 39 45 53 53 65
28 20 15 20 35 33 15 18 14 10 18 9 18 20 12 14 25 24 20 17 18 20 5 7 5 5 5 9 9 7 15 20 23 24 20 14 8 4 7 18 21 22 25 29 34 37 33 33 37 38 43 49 51 65
21 12 24 24 34 16 12 11 16 9 11 12 13 13 11 14 13 21 27 27 23 12 9 7 8 6 7 7 6 6 16 27 32 24 19 15 9 3 5 15 18 19 22 25 30 37 32 34 38 39 43 47 48 57
13 17 26 45 32 11 10 12 12 10 7 9 7 15 10 13 18 21 17 26 20 10 7 15 12 7 14 12 6 12 20 25 32 18 17 18 13 6 4 13 16 19 24 25 25 29 33 37 37 36 41 43 47 49
32 49 32 40 6 8 5 10 6 6 8 7 6 14 8 7 11 19 16 15 9 14 12 15 18 11 11 11 15 14 13 22 25 17 16 12 15 10 2 11 14 14 23 26 29 30 30 33 37 32 40 41 42 50
43 38 11 10 5 8 4 9 9 9 6 5 8 5 5 8 11 20 11 12 14 19 35 22 13 7 17 18 16 13 19 23 22 20 18 15 15 9 3 10 14 16 17 24 27 28 27 24 29 29 36 43 48 49
23 17 8 12 8 8 8 9 8 6 8 4 4 5 5 5 20 6 3 8 12 24 14 19 17 25 24 23 23 23 24 20 19 20 17 14 13 9 4 8 13 16 20 23 24 26 24 21 25 32 42 45 48 51
10 9 9 7 8 9 7 5 7 4 5 6 4 4 4 8 4 3 1 6 1 21 32 33 30 29 29 27 28 26 24 17 16 19 18 14 8 6 4 6 11 13 17 20 24 24 24 25 25 30 39 47 45 46
7 10 11 15 9 7 7 6 9 8 4 4 5 4 5 3 3 5 4 15 13 5 21 30 34 33 26 21 29 26 24 19 14 14 16 14 6 5 5 4 4 10 16 22 24 21 21 23 26 27 30 39 49 45
8 7 9 9 7 5 5 5 6 4 6 5 4 3 2 4 4 5 5 23 7 5 14 24 26 21 17 23 22 23 26 19 16 9 12 9 6 8 10 9 10 12 16 19 22 21 20 19 22 25 28 33 41 47
5 12 8 13 10 8 4 4 6 7 4 6 7 3 3 4 5 9 7 18 11 20 24 26 18 10 18 25 23 23 25 22 17 13 12 6 5 4 4 8 13 17 18 18 20 20 19 19 19 21 24 28 32 36
6 13 14 7 6 6 5 3 4 8 5 8 3 5 6 9 12 11 14 16 21 25 25 24 16 16 21 22 16 18 21 20 14 15 7 8 3 2 2 9 14 16 18 19 19 18 18 18 19 19 21 23 26 28
8 16 6 6 4 3 2 2 8 14 13 14 17 29 32 31 31 23 23 23 24 22 19 14 11 17 19 18 16 20 20 16 11 5 5 6 5 6 5 6 11 14 16 17 18 19 19 19 19 18 18 18 19 20
13 6 6 4 5 10 24 32 26 23 19 23 34 34 21 16 30 34 34 33 28 23 19 19 19 18 19 20 21 19 18 16 18 17 13 10 8 8 5 6 9 13 15 17 17 18 18 18 16 15 15 15 16 18
7 4 6 4 6 15 13 8 10 12 12 13 12 11 10 10 10 16 32 26 25 23 25 25 25 27 20 9 5 7 7 6 8 10 10 9 7 3 3 8 12 14 16 16 17 18 18 19 19 19 17 16 14 13
7 9 8 9 6 5 7 9 8 7 11 8 9 10 10 8 9 7 16 22 18 20 20 16 13 11 8 5 4 7 10 13 14 12 8 3 5 9 12 12 12 13 14 15 17 17 18 19 19 19 19 18 18 16
Wind_Direction_850mb
262 265 273 268 289 294 287 276 280 281 286 286 309 300 290 301 291 296 292 305 270 250 276 276 269 241 245 220 219 314 313 217 270 249 259 288 285 356 278 261 271 249 185 183 202 216 246 100 273 266 332 312 311 305
258 262 264 271 280 281 276 271 270 281 281 274 292 285 285 288 284 285 270 307 301 256 269 288 290 284 265 248 251 217 277 314 285 273 326 307 266 273 310 291 286 246 313 309 239 302 69 285 283 295 311 312 312 306
262 265 267 272 274 274 274 268 270 270 280 260 271 276 278 286 285 274 277 279 290 287 293 284 290 276 115 325 234 218 230 225 235 229 271 271 269 276 273 263 297 251 313 264 309 115 288 312 300 260 317 314 314 308
265 264 268 271 275 276 261 264 261 261 268 260 256 268 279 285 279 275 262 287 283 267 281 280 277 286 297 284 248 228 219 243 217 228 242 247 264 210 266 305 279 273 299 277 268 283 313 246 319 319 317 315 314 309
273 273 273 272 271 270 264 264 269 269 257 255 247 261 264 278 267 269 266 275 272 259 279 288 301 316 303 306 240 224 229 231 214 243 230 229 253 251 236 268 254 216 221 233 296 322 275 298 313 316 313 314 314 315
275 272 268 265 265 267 267 269 268 261 244 242 240 252 262 282 263 245 240 267 244 242 287 296 304 293 335 325 249 223 221 215 212 211 242 244 254 262 277 265 267 238 237 248 280 308 297 300 311 316 313 313 313 314
275 270 269 268 265 266 268 268 264 251 228 224 232 246 263 268 265 216 206 184 291 189 244 292 285 281 320 319 142 173 198 202 196 232 220 248 229 195 245 259 294 275 272 276 303 312 310 320 315 316 316 315 318 317
279 276 271 270 270 271 271 267 261 250 220 217 229 250 242 278 252 220 243 273 299 188 210 272 279 297 219 230 198 187 185 209 220 244 185 226 213 224 253 256 289 299 289 294 309 316 310 312 316 321 322 323 321 320
283 278 282 283 277 270 265 262 256 229 198 216 226 252 267 207 207 252 260 213 229 221 214 227 258 286 334 307 228 195 193 201 205 229 223 192 207 230 255 287 311 316 326 313 319 324 329 327 324 328 328 326 322 322
279 275 286 283 284 277 257 256 250 184 185 200 235 174 162 174 187 185 139 182 222 225 218 245 231 260 301 325 281 222 188 205 226 213 179 225 247 257 270 279 246 321 333 335 335 333 333 328 330 327 325 326 326 328
274 269 273 261 249 256 257 244 206 175 193 200 189 149 144 146 155 151 163 208 196 248 222 240 229 239 255 237 273 241 212 175 245 130 260 250 249 206 183 243 321 336 334 332 327 324 325 320 324 326 328 332 333 332
272 258 256 230 214 217 211 196 185 196 184 184 182 145 143 171 156 212 205 186 215 246 210 217 222 208 236 214 248 226 264 200 246 155 230 243 70 91 206 309 335 338 333 328 327 329 331 327 334 334 335 336 335 337
260 245 246 242 225 219 225 208 192 207 215 187 186 136 151 162 193 208 193 201 214 202 211 206 209 194 196 216 247 245 235 231 130 221 236 297 227 231 287 326 337 344 337 324 322 329 332 336 345 349 345 343 342 340
250 233 233 232 229 233 217 220 211 209 203 198 167 162 209 189 227 203 216 195 211 205 219 204 228 196 199 188 232 234 149 244 245 267 201 116 112 112 342 338 346 339 337 329 328 335 340 344 346 353 352 350 345 343
251 248 239 232 230 229 219 220 213 207 193 209 187 210 213 226 234 216 229 229 197 241 242 296 252 203 170 244 223 262 217 253 253 307 91 113 117 55 18 360 353 352 346 352 352 349 348 345 349 353 358 352 349 348
252 248 239 238 235 232 217 204 195 200 205 222 221 226 222 206 243 230 229 234 221 246 263 253 209 205 204 215 194 213 207 235 242 199 137 125 101 105 35 6 359 352 358 0 1 359 356 353 356 355 354 356 357 355
252 250 258 260 235 227 212 189 177 190 214 215 229 224 222 249 245 246 217 215 229 213 216 185 207 165 112 200 219 191 214 215 174 151 133 121 122 90 25 10 5 8 9 10 5 3 1 357 359 360 358 358 360 1
255 267 276 222 192 192 182 184 177 196 225 217 222 227 213 222 237 243 216 225 212 205 192 186 226 187 196 210 213 207 189 160 152 152 144 139 128 76 34 11 13 18 15 7 4 2 360 2 3 1 357 357 360 5
262 252 222 197 194 186 154 174 188 198 214 217 235 240 230 241 240 235 223 239 272 222 218 193 217 216 212 215 235 185 177 167 165 162 158 153 144 93 35 12 10 17 14 12 13 9 7 13 8 6 2 2 4 8
250 217 201 202 200 171 158 169 180 209 198 219 226 229 213 224 221 231 229 228 228 177 215 208 222 218 208 244 265 206 179 175 169 158 169 183 186 160 34 11 12 17 18 18 19 18 16 14 11 10 9 8 9 10
202 194 191 187 173 180 174 165 180 200 208 221 235 214 236 235 227 211 218 239 200 194 225 223 209 218 267 271 219 161 169 179 182 174 174 180 185 182 16 14 20 19 18 18 18 18 20 19 13 11 12 14 17 17
166 170 166 180 141 167 166 191 170 190 196 240 243 203 228 207 197 199 199 188 209 200 219 205 213 245 217 163 142 141 155 166 161 147 143 145 164 168 51 19 29 27 22 21 21 19 19 21 18 16 17 17 19 24
176 177 135 146 136 173 157 186 178 200 219 212 197 209 218 213 199 175 193 205 216 209 211 213 237 167 159 143 134 127 136 151 151 150 151 153 159 153 84 27 36 37 27 23 21 20 22 27 27 29 22 25 28 29
177 165 157 165 165 169 183 192 206 232 210 219 227 215 207 179 162 211 227 207 199 185 203 205 217 163 155 146 142 141 141 148 157 157 159 152 155 152 102 52 48 42 37 28 21 22 27 32 36 38 35 33 32 33
129 168 158 167 184 194 193 200 176 222 230 185 243 215 188 150 148 145 260 18 94 191 195 194 195 185 167 161 156 153 150 139 134 159 159 155 132 121 87 69 49 44 39 34 28 30 32 34 39 40 39 39 38 37
169 181 191 188 167 223 180 197 186 203 199 215 226 208 158 121 112 108 62 349 350 283 200 190 182 176 171 170 172 171 168 157 146 147 153 152 127 70 104 109 51 26 31 34 30 33 38 42 43 43 40 38 41 41
168 170 191 187 177 196 186 212 167 191 192 222 171 144 131 124 119 74 23 358 17 29 174 182 179 180 177 167 171 172 169 165 160 156 155 145 96 90 89 80 56 34 27 23 21 27 32 37 41 43 41 38 41 43
200 179 174 183 177 209 171 206 193 191 208 218 170 127 99 41 57 339 345 10 66 108 132 154 160 145 150 159 164 174 180 173 166 152 140 106 83 81 45 23 23 22 16 13 16 18 21 26 31 35 36 37 39 41
211 173 160 160 181 187 229 221 206 196 203 136 101 76 81 67 22 31 40 67 109 118 138 140 133 142 160 174 176 167 165 163 155 154 103 13 334 299 337 353 353 356 356 357 4 9 14 19 20 20 24 29 33 35
171 170 123 149 184 178 206 145 93 105 96 115 104 105 91 78 62 71 85 98 111 121 129 142 164 160 173 187 190 178 174 176 180 209 311 327 290 281 277 319 331 340 348 352 353 356 2 8 10 10 8 5 9 21
156 133 108 104 85 75 110 115 114 104 89 96 118 113 115 110 68 61 76 87 94 104 109 113 126 125 130 136 147 157 175 205 228 242 267 274 240 223 256 308 330 337 340 343 344 344 346 351 354 359 1 3 360 355
138 117 126 107 102 124 113 63 70 81 77 81 66 86 86 80 70 44 51 79 99 112 116 118 121 121 124 128 156 192 219 206 166 153 150 149 150 140 349 339 339 339 340 341 342 342 343 344 345 346 348 350 353 353
105 120 102 106 111 101 85 93 80 81 63 68 61 60 62 72 86 64 46 64 88 101 111 114 117 138 132 126 114 141 146 139 129 118 98 57 324 313 319 329 340 348 348 345 342 339 338 337 335 334 333 334 335 338